{"data":{"norad_id":57647,"epoch":"2026-05-25T00:42:41.425632Z","epoch_age_seconds":82915,"freshness":"FRESH","line1":"1 57647U 23122R   26145.02964613  .00002899  00000+0  11477-3 0  9998","line2":"2 57647  43.0038  21.2460 0001343 279.1554  80.9146 15.27597280153887","mean_motion":15.2759728,"eccentricity":0.0001343,"inclination_deg":43.0038,"raan_deg":21.246,"arg_perigee_deg":279.1554,"mean_anomaly_deg":80.9146,"bstar":0.00011477,"rev_number":15388,"period_min":94.265682379324,"perigee_km":482.07590364722,"apogee_km":483.9188043347,"semimajor_km":6861.134353991,"source":"CELESTRAK","updated_at":"2026-05-25T13:38:18.365343Z"}}